Home > Weather > Oss > Past weeks

Flag for Netherlands Past Weather in Oss, Netherlands — Yesterday and Last 2 Weeks

Now
68 °F

Mild.


Feels Like: 68 °F
Forecast: 63 / 89 °F
Wind: 5 mph from East

Location: Volkel

Current Time: Aug 23, 2016 at 11:09:19 PM

Latest Report: Aug 23, 2016 at 10:25 PM


Visibility: N/A

Pressure: 30.21 "Hg

Humidity: 83%

Dew Point: 63 °F

Location of OssLocation

Past Weather in Oss — Graph

°F

Oss Temperature Yesterday

Maximum temperature yesterday: 73 °F (at 5:25 PM)
Minimum temperature yesterday: 57 °F (at 3:25 AM)
Average temperature yesterday: 63 °F

High & Low Weather Summary for the Past Weeks

 TemperatureHumidityPressure
High82 °F (Aug 23, 3:25 PM)100% (Aug 9, 5:25 AM)30.33 "Hg (Aug 9, 5:25 AM)
Low43 °F (Aug 11, 3:55 AM)34% (Aug 17, 3:55 PM)29.77 "Hg (Aug 19, 1:55 PM)
Average63 °F77%30.08 "Hg
* Reported Aug 8 9:25 PM — Aug 23 9:55 PM, Oss, Weather by CustomWeather, © 2016

Note: Actual official high and low records may vary slightly from our data, if they occured in-between our weather recording intervals... More about our weather records

Advertising

Oss Weather History for the Previous 24 Hours

Scroll right to see more
 ConditionsComfort  
Time TempWeatherWind HumidityBarometerVisibility
9:55 PM
Tue, Aug 23
68 °FMild.6 mph83%30.21 "HgN/A
9:25 PM70 °FMild.5 mph78%30.21 "HgN/A
8:55 PM72 °FMild.2 mph78%30.21 "HgN/A
8:25 PM75 °FMild.3 mph69%30.21 "HgN/A
7:55 PM79 °FWarm.5 mph61%30.21 "HgN/A
7:25 PM81 °FWarm.5 mph54%30.21 "HgN/A
6:55 PM81 °FPassing clouds.6 mph51%30.24 "HgN/A
6:25 PM82 °FWarm.5 mph51%30.24 "HgN/A
5:55 PM82 °FWarm.3 mph48%30.24 "HgN/A
5:25 PM82 °FPassing clouds.2 mph48%30.24 "HgN/A
4:55 PM82 °FPassing clouds.2 mph48%30.24 "HgN/A
4:25 PM82 °FWarm.5 mph45%30.27 "HgN/A
3:55 PM82 °FWarm.5 mph48%30.27 "HgN/A
3:25 PM82 °FScattered clouds.6 mph48%30.27 "HgN/A
2:55 PM81 °FPassing clouds.3 mph48%30.27 "HgN/A
2:25 PM81 °FWarm.3 mph51%30.27 "HgN/A
1:55 PM79 °FWarm.5 mph54%30.27 "HgN/A
1:25 PM79 °FWarm.5 mph51%30.30 "HgN/A
12:55 PM77 °FWarm.6 mph54%30.30 "HgN/A
12:25 PM77 °FPassing clouds.5 mph54%30.30 "HgN/A
11:55 AM75 °FMild.3 mph54%30.30 "HgN/A
11:25 AM73 °FMild.6 mph61%30.30 "HgN/A
10:55 AM72 °FMild.5 mph57%30.30 "HgN/A
10:25 AM70 °FMild.5 mph64%30.30 "HgN/A
9:55 AM68 °FMild.3 mph64%30.33 "HgN/A
9:25 AM64 °FPassing clouds.3 mph73%30.33 "HgN/A
8:55 AM63 °FMild.5 mph83%30.30 "HgN/A
8:25 AM61 °FPassing clouds.3 mph83%30.30 "HgN/A
7:55 AM57 °FCool.1 mph94%30.30 "HgN/A
7:25 AM54 °FCool.No wind100%30.30 "HgN/A
6:55 AM54 °FCool.No wind94%30.30 "HgN/A
6:25 AM54 °FCool.2 mph94%30.30 "HgN/A
5:55 AM55 °FCool.2 mph94%30.30 "HgN/A
5:25 AM54 °FCool.2 mph100%30.30 "HgN/A
4:55 AM54 °FCool.2 mph94%30.30 "HgN/A
4:25 AM55 °FCool.3 mph94%30.30 "HgN/A
3:55 AM54 °FCool.3 mph100%30.30 "HgN/A
3:25 AM54 °FCool.1 mph100%30.27 "HgN/A
2:55 AM54 °FCool.1 mph100%30.30 "HgN/A
2:25 AM55 °FCool.2 mph100%30.30 "HgN/A
1:55 AM55 °FCool.1 mph100%30.30 "HgN/A
1:25 AM54 °FCool.1 mph100%30.30 "HgN/A
12:55 AM55 °FCool.2 mph94%30.27 "HgN/A
12:25 AM59 °FCool.3 mph94%30.27 "HgN/A
11:55 PM
Mon, Aug 22
59 °FCool.3 mph88%30.27 "HgN/A
11:25 PM59 °FCool.3 mph100%30.27 "HgN/A
Weather by CustomWeather, © 2016

See weather overviewHow to use our weather pages